No particular awareness of the weather is required.    There are no Weather-warnings


Meteo18 Weather Cam more information Meteo18 Weather Cam


Thunder radar more information blitzortung!


Rain radar more information rain snow radar


Visit our other weather sites:

Template documentation
and downloads

And another site



Weather Underground History page Text

Daily Summary for July 22, 2016 Units:  Metric    English   Both
« Previous Day
Next Day »
Daily Weekly Monthly Yearly Custom
  High: Low: Average:
Temperature: -17.8 °C -9.2 °C -6.2 °C
Dew Point: -17.8 °C -9.8 °C -8.8 °C
Humidity: Humidity % 52 % 76 %
Wind Speed: 0 km/h 0 km/h 1.4 km/h
Wind Gust: 0 km/h - -
Wind:- - ENE
Pressure: 0 hPa 34361.1 hPa -
Precipitation: 0 mm    
Historical Graphs
 
 
Tabular Data for July 22, 2016
Time Temperature Dew Point Pressure Wind Wind Speed Wind Gust Humidity Rainfall Rate (Hourly)
-17.8 °C -17.8 °C 0 hPa Calm     Humidity % 0 mm
00:02 -8.2 °C -9.4 °C 34405.1 hPa Calm     87 % 0 mm
00:07 -8.2 °C -9.4 °C 34418.7 hPa Calm     87 % 0 mm
00:12 -8.2 °C -9.4 °C 34405.1 hPa Calm     87 % 0 mm
00:17 -8.2 °C -9.4 °C 34405.1 hPa Calm     87 % 0 mm
00:22 -8.2 °C -9.4 °C 34405.1 hPa Calm     87 % 0 mm
00:32 -8.2 °C -9.4 °C 34405.1 hPa Calm     87 % 0 mm
00:42 -8.3 °C -9.4 °C 34395 hPa Calm     88 % 0 mm
00:47 -8.3 °C -9.4 °C 34395 hPa Calm     88 % 0 mm
00:52 -8.3 °C -9.3 °C 34395 hPa Calm     89 % 0 mm
00:57 -8.3 °C -9.3 °C 34395 hPa Calm     89 % 0 mm
01:02 -8.3 °C -9.3 °C 34395 hPa Calm     89 % 0 mm
01:07 -8.3 °C -9.3 °C 34395 hPa Calm     89 % 0 mm
01:12 -8.3 °C -9.3 °C 34395 hPa Calm     89 % 0 mm
01:17 -8.2 °C -9.3 °C 34395 hPa Calm     88 % 0 mm
01:22 -8.2 °C -9.3 °C 34395 hPa Calm     88 % 0 mm
01:32 -8.2 °C -9.4 °C 34395 hPa Calm     87 % 0 mm
01:37 -8.3 °C -9.4 °C 34395 hPa Calm     88 % 0 mm
01:42 -8.3 °C -9.4 °C 34395 hPa Calm     88 % 0 mm
01:47 -8.4 °C -9.5 °C 34395 hPa Calm     88 % 0 mm
01:52 -8.4 °C -9.5 °C 34395 hPa Calm     88 % 0 mm
01:57 -8.4 °C -9.4 °C 34395 hPa Calm     89 % 0 mm
02:02 -8.4 °C -9.4 °C 34395 hPa Calm     89 % 0 mm
02:07 -8.4 °C -9.4 °C 34395 hPa Calm     89 % 0 mm
02:12 -8.4 °C -9.4 °C 34395 hPa Calm     89 % 0 mm
02:17 -8.4 °C -9.4 °C 34395 hPa Calm     89 % 0 mm
02:22 -8.4 °C -9.4 °C 34395 hPa Calm     89 % 0 mm
02:27 -8.5 °C -9.5 °C 34384.8 hPa Calm     89 % 0 mm
02:32 -8.6 °C -9.4 °C 34384.8 hPa Calm     90 % 0 mm
02:37 -8.6 °C -9.5 °C 34384.8 hPa Calm     90 % 0 mm
02:42 -8.7 °C -9.5 °C 34384.8 hPa Calm     91 % 0 mm
02:47 -8.6 °C -9.4 °C 34384.8 hPa Calm     91 % 0 mm
02:52 -8.6 °C -9.4 °C 34384.8 hPa Calm     91 % 0 mm
03:02 -8.6 °C -9.4 °C 34384.8 hPa Calm     91 % 0 mm
03:07 -8.6 °C -9.4 °C 34384.8 hPa Calm     91 % 0 mm
03:12 -8.7 °C -9.5 °C 34384.8 hPa Calm     91 % 0 mm
03:17 -8.7 °C -9.5 °C 34384.8 hPa Calm     91 % 0 mm
03:22 -8.6 °C -9.4 °C 34371.3 hPa Calm     91 % 0 mm
03:32 -8.5 °C -9.3 °C 34371.3 hPa Calm     91 % 0 mm
03:37 -8.5 °C -9.3 °C 34371.3 hPa Calm     91 % 0 mm
03:42 -8.5 °C -9.3 °C 34371.3 hPa Calm     91 % 0 mm
03:47 -8.6 °C -9.4 °C 34361.1 hPa Calm     91 % 0 mm
03:57 -8.6 °C -9.4 °C 34361.1 hPa Calm     91 % 0 mm
04:02 -8.6 °C -9.4 °C 34371.3 hPa Calm     91 % 0 mm
04:12 -8.6 °C -9.4 °C 34361.1 hPa Calm     91 % 0 mm
04:17 -8.6 °C -9.4 °C 34361.1 hPa Calm     91 % 0 mm
04:22 -8.7 °C -9.6 °C 34361.1 hPa Calm     90 % 0 mm
04:27 -8.7 °C -9.6 °C 34361.1 hPa Calm     91 % 0 mm
04:32 -8.8 °C -9.6 °C 34361.1 hPa Calm     91 % 0 mm
04:37 -8.8 °C -9.6 °C 34361.1 hPa Calm     91 % 0 mm
04:42 -8.8 °C -9.6 °C 34361.1 hPa Calm     91 % 0 mm
04:47 -8.8 °C -9.6 °C 34361.1 hPa Calm     91 % 0 mm
04:52 -8.8 °C -9.7 °C 34361.1 hPa Calm     91 % 0 mm
05:02 -8.8 °C -9.6 °C 34361.1 hPa Calm     92 % 0 mm
05:12 -8.8 °C -9.6 °C 34361.1 hPa Calm     92 % 0 mm
05:22 -8.8 °C -9.6 °C 34361.1 hPa Calm     92 % 0 mm
05:32 -8.9 °C -9.6 °C 34361.1 hPa Calm     92 % 0 mm
05:42 -9 °C -9.7 °C 34361.1 hPa Calm     92 % 0 mm
05:52 -9.1 °C -9.8 °C 34361.1 hPa Calm     92 % 0 mm
06:02 -9.1 °C -9.7 °C 34371.3 hPa Calm     93 % 0 mm
06:07 -9.1 °C -9.7 °C 34371.3 hPa Calm     93 % 0 mm
06:12 -9.1 °C -9.7 °C 34371.3 hPa Calm     93 % 0 mm
06:17 -9.1 °C -9.7 °C 34361.1 hPa Calm     93 % 0 mm
06:22 -9.1 °C -9.7 °C 34361.1 hPa Calm     93 % 0 mm
06:32 -9.2 °C -9.8 °C 34361.1 hPa Calm     93 % 0 mm
06:42 -9.2 °C -9.8 °C 34361.1 hPa Calm     93 % 0 mm
06:52 -9.2 °C -9.8 °C 34361.1 hPa Calm     93 % 0 mm
07:02 -9.1 °C -9.7 °C 34361.1 hPa Calm     93 % 0 mm
07:12 -9 °C -9.6 °C 34361.1 hPa Calm     93 % 0 mm
07:17 -8.9 °C -9.6 °C 34371.3 hPa Calm     93 % 0 mm
07:22 -8.9 °C -9.7 °C 34371.3 hPa Calm     92 % 0 mm
07:32 -8.9 °C -9.7 °C 34371.3 hPa Calm     92 % 0 mm
07:42 -8.8 °C -9.4 °C 34371.3 hPa Calm     93 % 0 mm
07:47 -8.8 °C -9.4 °C 34371.3 hPa Calm     93 % 0 mm
07:52 -8.8 °C -9.5 °C 34371.3 hPa Calm     92 % 0 mm
07:57 -8.7 °C -9.4 °C 34371.3 hPa Calm     92 % 0 mm
08:02 -8.7 °C -9.4 °C 34371.3 hPa Calm     92 % 0 mm
08:12 -8.5 °C -9.3 °C 34384.8 hPa Calm     91 % 0 mm
08:17 -8.4 °C -9.2 °C 34384.8 hPa Calm     91 % 0 mm
08:22 -8.3 °C -9.2 °C 34384.8 hPa Calm     90 % 0 mm
08:32 -8.1 °C -9.1 °C 34384.8 hPa Calm     89 % 0 mm
08:37 -8 °C -9 °C 34384.8 hPa Calm     89 % 0 mm
08:42 -7.9 °C -8.9 °C 34384.8 hPa Calm     89 % 0 mm
08:52 -7.6 °C -8.6 °C 34384.8 hPa Calm     89 % 0 mm
08:57 -7.4 °C -8.6 °C 34384.8 hPa Calm   2.6 km/h 87 % 0 mm
09:02 -7.3 °C -8.5 °C 34384.8 hPa Calm   2.6 km/h 87 % 0 mm
09:12 -7.2 °C -8.6 °C 34384.8 hPa Calm   5.1 km/h 86 % 0 mm
09:17 -7.1 °C -8.4 °C 34384.8 hPa Calm   7.7 km/h 86 % 0 mm
09:22 -6.8 °C -8.5 °C 34384.8 hPa ENE 2.6 km/h 7.7 km/h 83 % 0 mm
09:32 -6.7 °C -8.6 °C 34384.8 hPa Calm   7.7 km/h 81 % 0 mm
09:42 -6.8 °C -8.7 °C 34384.8 hPa NE 2.6 km/h 12.9 km/h 81 % 0 mm
09:47 -6.8 °C -8.7 °C 34384.8 hPa ENE 2.6 km/h 12.9 km/h 81 % 0 mm
09:52 -6.6 °C -8.4 °C 34384.8 hPa Calm   12.9 km/h 81 % 0 mm
10:02 -6.1 °C -8.1 °C 34384.8 hPa ENE 7.7 km/h 15.6 km/h 80 % 0 mm
10:07 -5.9 °C -8.2 °C 34395 hPa NE 2.6 km/h 15.6 km/h 78 % 0 mm
10:12 -5.8 °C -8.2 °C 34395 hPa East 5.1 km/h 15.6 km/h 77 % 0 mm
10:17 -5.8 °C -8.1 °C 34395 hPa ENE 2.6 km/h 10.3 km/h 77 % 0 mm
10:27 -5.7 °C -8.1 °C 34384.8 hPa NE 7.7 km/h 12.9 km/h 76 % 0 mm
10:32 -5.7 °C -8.1 °C 34384.8 hPa NE 5.1 km/h 15.6 km/h 76 % 0 mm
10:37 -5.6 °C -8.2 °C 34384.8 hPa Calm   15.6 km/h 75 % 0 mm
10:42 -5.5 °C -8.1 °C 34384.8 hPa ENE 5.1 km/h 15.6 km/h 75 % 0 mm
10:47 -5.3 °C -8.1 °C 34384.8 hPa Calm   12.9 km/h 74 % 0 mm
10:52 -5.3 °C -8.2 °C 34384.8 hPa ENE 7.7 km/h 15.6 km/h 72 % 0 mm
10:57 -5.2 °C -8.2 °C 34371.3 hPa NE 2.6 km/h 15.6 km/h 72 % 0 mm
11:02 -5.1 °C -8 °C 34384.8 hPa Calm   15.6 km/h 72 % 0 mm
11:12 -4.8 °C -7.9 °C 34384.8 hPa NE 2.6 km/h 10.3 km/h 71 % 0 mm
11:17 -4.7 °C -7.9 °C 34384.8 hPa East 2.6 km/h 10.3 km/h 70 % 0 mm
11:27 -4.6 °C -7.9 °C 34384.8 hPa ENE 2.6 km/h 18.2 km/h 69 % 0 mm
11:32 -4.6 °C -8.2 °C 34384.8 hPa NE 5.1 km/h 18.2 km/h 67 % 0 mm
11:42 -4.7 °C -8.3 °C 34384.8 hPa Calm   15.6 km/h 67 % 0 mm
11:52 -4.5 °C -8.1 °C 34395 hPa East 5.1 km/h 15.6 km/h 67 % 0 mm
11:57 -4.5 °C -8.4 °C 34395 hPa NE 2.6 km/h 15.6 km/h 65 % 0 mm
12:02 -4.4 °C -8 °C 34395 hPa Calm   15.6 km/h 67 % 0 mm
12:07 -4.3 °C -7.9 °C 34395 hPa ENE 2.6 km/h 12.9 km/h 67 % 0 mm
12:12 -4.4 °C -8.2 °C 34395 hPa ESE 2.6 km/h 12.9 km/h 66 % 0 mm
12:17 -4.6 °C -8.3 °C 34395 hPa Calm   12.9 km/h 66 % 0 mm
12:22 -4.6 °C -8.2 °C 34384.8 hPa Calm   12.9 km/h 67 % 0 mm
12:32 -4.3 °C -7.9 °C 34384.8 hPa SSE 2.6 km/h 12.9 km/h 67 % 0 mm
12:42 -4.3 °C -7.9 °C 34384.8 hPa Calm   15.6 km/h 67 % 0 mm
12:47 -4.1 °C -8 °C 34384.8 hPa NE 2.6 km/h 18.2 km/h 65 % 0 mm
12:52 -4.3 °C -7.8 °C 34384.8 hPa NNE 5.1 km/h 18.2 km/h 68 % 0 mm
13:02 -4.3 °C -7.8 °C 34384.8 hPa ESE 2.6 km/h 18.2 km/h 68 % 0 mm
13:12 -4.2 °C -7.7 °C 34384.8 hPa East 5.1 km/h 10.3 km/h 68 % 0 mm
13:17 -4.3 °C -7.9 °C 34384.8 hPa NE 5.1 km/h 12.9 km/h 67 % 0 mm
13:22 -4.4 °C -8.2 °C 34395 hPa NE 7.7 km/h 12.9 km/h 66 % 0 mm
13:27 -4.3 °C -7.9 °C 34395 hPa ENE 5.1 km/h 20.8 km/h 67 % 0 mm
13:32 -4.2 °C -7.8 °C 34395 hPa ENE 2.6 km/h 20.8 km/h 67 % 0 mm
13:37 -3.7 °C -7.7 °C 34395 hPa NE 2.6 km/h 12.9 km/h 64 % 0 mm
13:42 -3.2 °C -7.2 °C 34384.8 hPa NE 5.1 km/h 12.9 km/h 65 % 0 mm
13:47 -3.4 °C -7.9 °C 34395 hPa ESE 5.1 km/h 15.6 km/h 61 % 0 mm
13:52 -3.4 °C -7.9 °C 34395 hPa SE 2.6 km/h 15.6 km/h 61 % 0 mm
14:02 -3.2 °C -7.6 °C 34395 hPa ENE 2.6 km/h 20.8 km/h 62 % 0 mm
14:07 -3 °C -7.4 °C 34395 hPa NE 5.1 km/h 20.8 km/h 62 % 0 mm
14:12 -3 °C -7.9 °C 34395 hPa NE 5.1 km/h 20.8 km/h 58 % 0 mm
14:17 -3.5 °C -8.4 °C 34395 hPa ESE 5.1 km/h 15.6 km/h 58 % 0 mm
14:22 -3.4 °C -8.2 °C 34395 hPa Calm   15.6 km/h 59 % 0 mm
14:27 -3.2 °C -7.9 °C 34395 hPa Calm   15.6 km/h 60 % 0 mm
14:32 -3.4 °C -7.9 °C 34395 hPa NE 5.1 km/h 15.6 km/h 61 % 0 mm
14:42 -3.3 °C -8.1 °C 34395 hPa East 5.1 km/h 15.6 km/h 59 % 0 mm
14:47 -2.9 °C -7.9 °C 34395 hPa Calm   15.6 km/h 58 % 0 mm
14:52 -2.8 °C -7.9 °C 34395 hPa Calm   15.6 km/h 57 % 0 mm
14:57 -3 °C -7.8 °C 34405.1 hPa Calm   15.6 km/h 59 % 0 mm
15:02 -2.9 °C -8.2 °C 34395 hPa ENE 2.6 km/h 15.6 km/h 56 % 0 mm
15:12 -2.8 °C -8.2 °C 34395 hPa NE 7.7 km/h 23.3 km/h 55 % 0 mm
15:17 -2.7 °C -8.1 °C 34395 hPa ESE 5.1 km/h 23.3 km/h 55 % 0 mm
15:22 -2.7 °C -8.3 °C 34395 hPa ENE 10.3 km/h 20.8 km/h 54 % 0 mm
15:27 -2.9 °C -8.2 °C 34395 hPa SW 2.6 km/h 15.6 km/h 56 % 0 mm
15:32 -2.9 °C -8.2 °C 34395 hPa ENE 5.1 km/h 15.6 km/h 56 % 0 mm
15:42 -2.9 °C -8.3 °C 34395 hPa Calm   15.6 km/h 55 % 0 mm
15:47 -2.9 °C -8.4 °C 34395 hPa NE 5.1 km/h 18.2 km/h 55 % 0 mm
15:52 -2.9 °C -8.1 °C 34395 hPa NE 7.7 km/h 18.2 km/h 57 % 0 mm
15:57 -3.1 °C -8.5 °C 34395 hPa ENE 7.7 km/h 18.2 km/h 55 % 0 mm
16:02 -3 °C -8.4 °C 34395 hPa Calm   18.2 km/h 55 % 0 mm
16:12 -2.8 °C -8.7 °C 34384.8 hPa NE 2.6 km/h 15.6 km/h 52 % 0 mm
16:17 -2.8 °C -8.6 °C 34395 hPa East 2.6 km/h 15.6 km/h 53 % 0 mm
16:22 -2.8 °C -8.6 °C 34395 hPa ESE 7.7 km/h 15.6 km/h 53 % 0 mm
16:32 -2.9 °C -8.4 °C 34395 hPa Calm   18.2 km/h 55 % 0 mm
16:37 -3 °C -8.4 °C 34395 hPa NE 10.3 km/h 20.8 km/h 55 % 0 mm
16:42 -3.1 °C -8.8 °C 34395 hPa SE 7.7 km/h 20.8 km/h 53 % 0 mm
16:47 -3.3 °C -9 °C 34395 hPa Calm   18.2 km/h 53 % 0 mm
16:52 -3.2 °C -8.4 °C 34384.8 hPa Calm   18.2 km/h 56 % 0 mm
16:57 -3.2 °C -8.9 °C 34384.8 hPa NE 5.1 km/h 18.2 km/h 53 % 0 mm
17:02 -3.3 °C -8.7 °C 34384.8 hPa ENE 10.3 km/h 18.2 km/h 55 % 0 mm
17:12 -3.6 °C -9.1 °C 34395 hPa Calm   18.2 km/h 54 % 0 mm
17:17 -3.6 °C -8.8 °C 34395 hPa ENE 2.6 km/h 18.2 km/h 56 % 0 mm
17:22 -3.7 °C -9.1 °C 34395 hPa NE 2.6 km/h 18.2 km/h 55 % 0 mm
17:32 -3.8 °C -9.1 °C 34395 hPa ENE 2.6 km/h 10.3 km/h 56 % 0 mm
17:37 -3.8 °C -9.1 °C 34395 hPa Calm   10.3 km/h 56 % 0 mm
17:42 -3.8 °C -8.8 °C 34395 hPa NE 2.6 km/h 10.3 km/h 57 % 0 mm
17:47 -3.8 °C -9.1 °C 34395 hPa Calm   10.3 km/h 56 % 0 mm
17:52 -3.9 °C -9.1 °C 34395 hPa NE 5.1 km/h 10.3 km/h 56 % 0 mm
18:02 -3.9 °C -9.1 °C 34384.8 hPa ENE 2.6 km/h 12.9 km/h 56 % 0 mm
18:12 -3.8 °C -9 °C 34384.8 hPa NE 10.3 km/h 12.9 km/h 56 % 0 mm
18:17 -3.8 °C -9 °C 34384.8 hPa ENE 5.1 km/h 12.9 km/h 56 % 0 mm
18:22 -3.8 °C -9.1 °C 34384.8 hPa Calm   12.9 km/h 56 % 0 mm
18:32 -3.8 °C -9.1 °C 34384.8 hPa ENE 2.6 km/h 15.6 km/h 56 % 0 mm
18:37 -3.8 °C -9.1 °C 34384.8 hPa NE 2.6 km/h 12.9 km/h 56 % 0 mm
18:42 -3.9 °C -8.9 °C 34384.8 hPa Calm   12.9 km/h 57 % 0 mm
18:47 -3.9 °C -9.2 °C 34384.8 hPa NE 10.3 km/h 12.9 km/h 56 % 0 mm
18:52 -3.9 °C -9.2 °C 34384.8 hPa Calm   12.9 km/h 56 % 0 mm
19:02 -4 °C -9.1 °C 34384.8 hPa Calm   12.9 km/h 57 % 0 mm
19:07 -4.1 °C -9.1 °C 34384.8 hPa ENE 2.6 km/h 10.3 km/h 57 % 0 mm
19:12 -4.1 °C -9.3 °C 34384.8 hPa Calm   10.3 km/h 56 % 0 mm
19:22 -4.1 °C -9.3 °C 34384.8 hPa Calm   12.9 km/h 56 % 0 mm
19:32 -4 °C -8.9 °C 34384.8 hPa Calm   12.9 km/h 58 % 0 mm
19:42 -4.1 °C -8.9 °C 34384.8 hPa Calm   7.7 km/h 58 % 0 mm
19:52 -4.1 °C -8.4 °C 34384.8 hPa Calm   7.7 km/h 62 % 0 mm
20:02 -4.3 °C -8.4 °C 34395 hPa Calm   5.1 km/h 63 % 0 mm
20:12 -4.5 °C -8.4 °C 34395 hPa Calm   2.6 km/h 65 % 0 mm
20:17 -4.6 °C -8.4 °C 34395 hPa Calm     65 % 0 mm
20:22 -4.7 °C -8.3 °C 34405.1 hPa Calm     67 % 0 mm
20:32 -4.8 °C -8.2 °C 34405.1 hPa Calm   2.6 km/h 69 % 0 mm
20:37 -4.9 °C -8.1 °C 34405.1 hPa Calm   5.1 km/h 70 % 0 mm
20:42 -4.9 °C -8.2 °C 34405.1 hPa Calm   5.1 km/h 70 % 0 mm
20:47 -5.1 °C -8.1 °C 34405.1 hPa Calm   2.6 km/h 71 % 0 mm
20:57 -5.2 °C -8.1 °C 34405.1 hPa Calm   2.6 km/h 72 % 0 mm
21:02 -5.2 °C -8.2 °C 34405.1 hPa Calm   2.6 km/h 72 % 0 mm
21:12 -5.4 °C -8.1 °C 34405.1 hPa Calm     74 % 0 mm
21:22 -5.6 °C -8.3 °C 34418.7 hPa Calm     74 % 0 mm
21:32 -5.8 °C -8.2 °C 34405.1 hPa Calm   2.6 km/h 76 % 0 mm
21:42 -6.1 °C -8.5 °C 34418.7 hPa Calm   2.6 km/h 76 % 0 mm
21:47 -6.2 °C -8.6 °C 34418.7 hPa Calm     77 % 0 mm
21:52 -6.4 °C -8.6 °C 34418.7 hPa Calm     78 % 0 mm
21:57 -6.5 °C -8.5 °C 34418.7 hPa Calm     80 % 0 mm
22:02 -6.6 °C -8.5 °C 34428.8 hPa Calm     81 % 0 mm
22:07 -6.7 °C -8.6 °C 34428.8 hPa Calm     81 % 0 mm
22:12 -6.8 °C -8.7 °C 34428.8 hPa Calm     81 % 0 mm
22:17 -6.8 °C -8.7 °C 34428.8 hPa Calm     81 % 0 mm
22:22 -6.8 °C -8.6 °C 34428.8 hPa Calm     82 % 0 mm
22:32 -6.7 °C -8.5 °C 34428.8 hPa Calm     82 % 0 mm
22:37 -6.7 °C -8.6 °C 34428.8 hPa Calm     81 % 0 mm
22:42 -6.7 °C -8.4 °C 34428.8 hPa Calm     82 % 0 mm
22:52 -6.8 °C -8.6 °C 34428.8 hPa Calm     82 % 0 mm
23:02 -6.8 °C -8.5 °C 34428.8 hPa Calm     83 % 0 mm
23:12 -6.8 °C -8.4 °C 34428.8 hPa Calm     84 % 0 mm
23:17 -6.8 °C -8.4 °C 34428.8 hPa Calm     84 % 0 mm
23:22 -6.8 °C -8.4 °C 34428.8 hPa Calm     84 % 0 mm
23:27 -6.8 °C -8.4 °C 34428.8 hPa Calm     84 % 0 mm
23:32 -6.9 °C -8.4 °C 34428.8 hPa Calm     84 % 0 mm
23:37 -6.9 °C -8.3 °C 34428.8 hPa Calm     85 % 0 mm
23:42 -6.9 °C -8.4 °C 34428.8 hPa Calm     85 % 0 mm
23:52 -6.9 °C -8.4 °C 34428.8 hPa Calm     85 % 0 mm
23:57 -6.9 °C -8.4 °C 34428.8 hPa Calm     85 % 0 mm
Meteo18
Compliments of Weather Underground - 4 mb

Script developed by  Jim McMurry - jmcmurry@mwt.net Adapted for the template by  Wim van der Kuil - Leuven-Template.eu

You find our weather info also at:

European Weather Network

Weather Underground

Equipment we use:

Weather-station
Davis Vue

Weather-program
Meteobridge

Weather-server
Raspberry PI 2 B+

Provider
1 and 1

Davis Vue

Meteobridge

Raspberry PI 2 B+

1 and 1